Location: Br�ttisellen
(47.4227°N, 8.6287°E)
Time: 06:13:39
(UTC+00:00)

Nadezhda 3 Rocket - Pass Details

Date: 09 April 2020
Orbit: 956 x 1000 km, 82.9° (Epoch: 29 May)

Event Time Altitude Azimuth Distance (km) Brightness Sun altitude
Exits shadow 21:41:23 47° 238° (WSW) 1,281 4.5 -29.8°
Maximum altitude 21:42:47 58° 283° (WNW) 1,147 4.4 -30.0°
Drops below altitude 10° 21:48:59 10° 2° (N) 2,741 7.0 -30.5°
Sets 21:51:33 0° 7° (N) 3,686 7.8 -30.7°
